📊 Raw Sensor Data

Showing records 41876 to 41900 of 84,990 total

ID Distance (ft) Battery V Battery A Int Temp (°F) Int Humid (%) Ext Temp (°F) Solar V RSSI SNR Time Stamp
43127 15.7 4.03 0 93 49 84 5.10 -73 7 06/10/2025 05:45 PM
43126 15.7 4.03 0 94 49 84 5.10 -73 7 06/10/2025 05:30 PM
43125 15.7 4.03 0 94 48 84 5.10 -72 7 06/10/2025 05:15 PM
43124 15.7 4.12 0 94 48 86 5.10 -73 8 06/10/2025 05:00 PM
43123 15.7 4.03 0 95 47 87 5.10 -72 7 06/10/2025 04:45 PM
43122 15.7 4.02 0 95 46 87 5.10 -73 8 06/10/2025 04:30 PM
43121 15.7 4.03 0 96 45 88 5.10 -70 8 06/10/2025 04:15 PM
43120 15.7 4.09 0 96 45 88 5.10 -70 8 06/10/2025 04:00 PM
43119 15.7 4.13 0 95 44 87 5.10 -70 8 06/10/2025 03:45 PM
43118 15.7 4.02 0 95 44 88 5.10 -71 7 06/10/2025 03:30 PM
43117 15.6 4.02 0 94 44 87 5.10 -71 8 06/10/2025 03:15 PM
43116 15.6 4.02 0 93 43 87 5.10 -69 8 06/10/2025 03:00 PM
43115 15.6 4.02 0 93 43 85 5.10 -70 7 06/10/2025 02:45 PM
43114 15.7 4.02 0 92 42 84 5.10 -72 8 06/10/2025 02:30 PM
43113 15.6 4.02 0 91 42 85 5.10 -72 7 06/10/2025 02:15 PM
43112 15.6 4.02 0 90 42 85 5.10 -70 8 06/10/2025 02:00 PM
43111 15.6 4.10 0 89 42 82 5.10 -72 8 06/10/2025 01:45 PM
43110 15.6 4.02 0 88 42 81 5.10 -71 7 06/10/2025 01:30 PM
43109 15.6 4.02 0 87 42 82 5.10 -71 7 06/10/2025 01:15 PM
43108 15.6 4.02 0 84 43 81 5.10 -72 7 06/10/2025 01:00 PM
43107 15.6 4.13 0 82 43 76 5.10 -72 8 06/10/2025 12:45 PM
43106 15.6 4.02 0 82 43 78 5.10 -72 7 06/10/2025 12:30 PM
43105 15.6 4.13 0 80 43 78 5.10 -69 8 06/10/2025 12:15 PM
43104 15.7 4.05 0 79 44 75 5.10 -70 7 06/10/2025 12:00 PM
43103 15.7 4.02 0 78 43 74 5.10 -68 7 06/10/2025 11:45 AM